Wind_Speed
9 9 9 9 9 9 9 8 8 8 8 8 7 7 8 8 8 7 7 8 7 7 6 6 5 5 5 5 5 5 5 5 5 6 6 7 7 8 8 8 9 9 10
8 8 8 8 8 8 7 7 7 7 7 7 7 7 8 8 7 7 7 7 7 6 6 6 5 5 5 5 5 5 5 6 6 6 7 7 9 9 9 9 10 10 11
6 7 7 6 6 6 7 7 7 7 6 6 6 7 7 7 7 7 6 6 6 5 5 5 6 6 6 6 6 6 6 7 7 7 8 8 8 9 10 11 10 11 11
4 5 5 5 5 5 5 6 6 6 6 6 5 5 6 6 6 6 6 5 5 6 6 6 7 7 7 7 7 7 7 7 8 8 8 9 9 9 9 10 11 11 12
3 3 3 4 4 4 5 5 5 5 5 5 5 5 5 5 5 5 6 6 6 6 7 7 7 8 8 8 8 7 8 8 8 9 9 9 9 9 9 10 11 12 12
2 2 3 4 4 4 5 5 6 5 4 4 4 4 4 5 5 5 6 6 6 7 7 8 8 8 8 9 9 9 9 10 10 9 9 10 10 10 10 10 11 12 13
2 2 2 3 3 3 4 5 5 5 4 4 4 5 5 5 6 6 7 7 7 8 8 8 8 9 9 10 10 10 10 10 10 11 11 11 11 11 12 12 12 13 14
3 2 2 2 3 3 3 4 5 5 5 5 5 6 7 7 8 8 8 8 9 9 8 8 9 9 10 10 10 10 11 11 12 12 12 12 12 12 13 14 14 14 15
5 4 4 4 4 3 4 4 5 5 5 5 6 7 7 8 8 9 10 10 9 10 9 10 10 10 10 10 10 11 12 12 12 13 13 13 14 14 14 15 15 15 16
6 6 5 5 5 5 5 5 5 6 6 6 6 7 8 8 8 9 11 10 10 10 11 11 11 11 11 11 12 12 12 13 13 14 14 15 15 15 15 16 16 17 17
8 7 7 7 7 7 7 6 6 7 7 7 7 8 8 8 9 10 11 11 11 11 12 12 12 13 13 12 13 13 13 14 15 15 15 15 16 16 16 17 17 17 18
10 9 8 8 8 8 8 8 8 8 8 8 9 9 9 10 11 12 12 12 12 12 13 13 13 14 14 14 14 15 15 15 16 15 15 16 16 16 17 18 18 19 19
11 10 9 9 9 10 10 9 9 10 9 9 10 10 10 11 12 12 13 13 13 13 14 14 14 14 15 15 15 16 16 17 17 17 16 16 17 17 18 19 20 20 20
12 12 11 11 11 12 12 11 11 11 11 11 12 12 12 13 13 13 14 14 14 14 15 15 15 15 16 16 17 17 18 18 19 18 18 18 18 18 19 20 20 21 21
13 13 13 13 13 13 13 13 13 12 12 13 13 14 14 14 14 15 15 15 15 15 16 16 16 16 17 17 18 19 19 18 18 19 19 19 19 20 21 21 22 22 22
15 16 15 14 14 14 15 14 14 14 14 14 15 15 15 15 15 15 16 16 16 16 17 17 18 18 18 19 20 20 20 19 19 19 20 21 21 21 22 22 23 23 23
17 17 16 16 16 16 16 16 16 16 16 16 16 16 16 16 16 16 17 17 17 18 18 18 19 20 20 20 21 21 22 21 21 21 22 22 22 22 23 24 24 24 24
19 18 18 19 19 19 18 18 18 17 17 17 17 17 17 17 17 18 18 18 19 19 20 21 22 22 22 22 22 23 23 23 23 23 23 23 23 23 24 25 25 25 26
22 21 20 20 20 21 21 20 20 19 19 18 18 18 19 19 19 19 20 20 20 21 22 23 23 24 24 24 24 24 24 24 24 24 25 25 25 25 25 26 26 26 27
22 22 22 21 21 21 21 22 20 21 21 21 20 20 20 20 20 21 21 22 22 23 23 24 24 24 24 24 25 25 25 25 26 26 27 27 27 27 27 28 28 28 29
24 25 25 24 23 23 22 22 21 21 21 22 22 22 22 22 22 23 24 24 24 25 25 24 25 25 25 25 25 26 26 26 26 27 28 28 28 29 29 29 30 30 30
26 27 26 26 25 25 24 23 23 23 23 23 23 23 23 23 23 24 25 26 26 26 26 26 26 26 26 26 26 26 26 27 28 28 29 29 30 30 30 31 31 31 31
28 27 27 27 27 26 25 25 24 25 25 25 24 24 25 24 25 26 26 26 27 27 27 27 27 26 26 27 27 27 28 28 29 30 30 30 30 30 31 31 31 31 31
28 28 28 29 29 28 27 26 26 26 27 26 25 26 26 26 27 26 26 27 27 27 28 27 27 27 27 27 27 27 28 29 30 31 32 33 32 32 32 32 32 32 32
29 29 28 28 28 26 26 28 28 28 28 27 26 27 27 27 28 27 27 28 28 28 28 28 28 28 28 28 28 28 29 30 30 31 32 33 33 33 32 32 32 33 33
29 29 28 28 28 27 27 28 28 29 29 28 28 28 28 28 29 28 28 28 29 29 29 28 28 28 29 29 29 29 29 30 30 31 31 32 32 32 32 32 32 32 32
Wind_Direction
69 71 72 73 72 70 70 67 66 67 68 66 61 55 55 51 48 47 40 38 35 31 27 26 19 12 3 355 350 345 343 339 334 334 334 325 319 320 319 320 317 312 309
65 62 65 69 70 69 65 60 58 57 59 57 55 54 53 50 45 40 36 37 32 30 26 21 13 6 357 352 344 337 334 330 327 324 322 320 320 320 317 314 313 312 312
63 58 57 62 68 67 65 62 57 56 59 56 52 53 49 43 39 34 33 29 23 20 15 10 1 355 350 346 341 337 331 326 324 320 317 315 315 318 316 314 314 313 311
46 49 48 50 56 59 62 62 56 54 55 50 45 41 36 33 29 27 22 16 13 10 2 359 354 347 338 336 336 334 333 332 327 322 318 315 314 314 315 314 314 313 312
7 21 32 34 33 50 55 54 52 48 48 44 33 28 29 25 22 19 14 5 358 355 352 350 343 341 336 331 331 329 330 330 331 328 324 321 318 316 316 317 317 315 314
325 341 11 19 26 42 44 40 33 29 30 33 24 15 11 8 4 359 357 354 349 343 341 341 340 339 337 333 329 327 325 325 328 327 324 322 320 317 315 316 317 318 317
287 304 334 3 10 11 11 13 10 11 6 8 8 360 350 347 346 345 344 342 339 335 335 336 336 335 333 331 327 324 324 322 324 327 325 321 319 316 314 315 316 317 317
273 280 291 321 333 338 341 343 349 351 349 347 352 352 350 346 343 342 340 337 334 331 332 330 327 326 327 327 325 324 323 319 319 322 323 321 318 316 314 314 315 316 314
259 261 276 293 303 304 311 321 328 334 334 336 338 341 344 341 337 337 338 335 333 334 337 335 330 329 328 323 321 321 322 320 318 319 319 318 316 315 313 311 313 315 315
255 264 273 277 287 295 301 306 310 314 319 321 324 330 338 337 333 329 331 333 332 332 331 330 328 327 324 323 322 320 318 316 315 315 315 314 313 313 311 310 310 311 312
265 270 275 280 288 295 297 302 300 303 307 312 316 321 328 332 328 327 327 327 323 322 326 324 324 323 321 318 317 318 315 314 313 313 313 312 311 310 309 308 308 308 309
269 271 271 277 285 291 295 300 296 299 302 304 310 312 320 327 327 324 322 321 317 314 314 316 316 317 318 317 316 314 314 311 311 311 311 310 310 308 307 306 307 307 308
267 268 273 279 282 284 288 293 297 299 302 305 306 306 310 317 319 319 319 317 314 311 310 311 313 314 314 314 312 311 310 309 307 307 309 310 310 307 305 305 305 307 308
268 269 272 277 279 282 287 289 291 294 297 301 301 302 303 308 311 314 313 312 309 309 307 307 309 311 311 309 308 308 308 305 304 305 305 306 305 305 304 304 304 304 305
267 269 272 274 275 278 282 287 289 290 292 294 295 296 299 303 306 308 307 306 305 305 304 303 306 306 307 306 306 306 307 306 304 303 302 303 301 302 303 303 303 302 303
267 267 267 271 274 277 281 285 287 288 288 289 290 292 295 298 301 304 305 303 302 303 303 301 300 301 302 304 304 304 303 301 302 304 304 302 301 301 301 301 301 302 302
266 270 272 269 273 277 280 281 283 284 286 288 289 291 293 295 299 301 304 302 300 300 301 299 298 299 300 301 302 301 302 302 302 303 303 302 302 301 301 301 301 301 301
264 267 269 269 269 272 276 278 279 282 284 285 286 288 289 291 294 297 298 300 300 299 300 299 298 298 300 299 299 299 300 300 301 301 302 301 301 303 302 301 301 302 302
264 265 266 268 270 272 274 275 277 280 281 282 283 285 286 288 289 292 295 296 296 297 298 299 298 298 300 300 299 297 298 299 300 300 300 300 300 301 300 300 300 301 301
262 263 263 265 268 272 274 273 276 279 278 279 280 282 284 286 287 288 291 293 296 297 299 299 299 299 299 300 301 301 299 298 299 299 299 299 299 300 299 298 298 299 300
261 261 261 263 266 270 274 277 277 280 281 281 281 282 284 285 287 289 291 294 296 296 296 296 295 296 297 297 299 300 300 299 299 299 298 296 296 297 298 297 297 297 298
261 262 262 262 265 267 272 276 279 280 280 281 283 285 285 286 288 290 291 292 294 295 295 296 296 296 297 296 297 299 300 300 300 300 299 298 297 296 297 296 296 297 297
261 262 262 262 264 265 269 273 276 279 279 280 282 284 284 285 289 291 290 291 292 293 293 295 296 297 297 297 298 300 301 301 301 301 301 301 299 298 297 295 296 297 298
261 262 261 262 264 264 268 270 274 276 278 279 281 284 285 287 288 292 291 292 293 294 295 294 294 296 297 298 300 300 300 300 300 300 300 301 299 298 296 295 296 297 298
258 260 261 264 263 266 270 271 272 274 276 278 280 282 284 287 290 292 294 294 294 295 296 295 294 295 297 298 299 300 300 300 299 299 300 301 301 299 297 297 297 298 299
258 258 259 261 264 267 269 272 274 275 276 278 279 281 283 285 288 290 292 293 294 294 295 295 294 295 297 298 298 298 300 301 300 300 300 301 301 300 300 300 300 300 299
Height
5901 5901 5900 5900 5899 5899 5898 5898 5898 5897 5897 5896 5896 5895 5895 5894 5894 5893 5892 5892 5891 5890 5889 5889 5888 5887 5887 5886 5885 5884 5883 5883 5882 5881 5880 5879 5878 5877 5876 5875 5874 5873 5872
5903 5902 5902 5901 5901 5900 5900 5900 5899 5899 5898 5898 5897 5897 5896 5896 5895 5894 5893 5892 5891 5891 5890 5889 5889 5888 5887 5886 5885 5884 5883 5882 5881 5880 5879 5878 5877 5876 5875 5873 5872 5871 5870
5904 5904 5903 5902 5902 5901 5901 5901 5900 5900 5899 5899 5898 5898 5897 5896 5896 5895 5894 5893 5892 5891 5890 5889 5888 5888 5887 5885 5884 5883 5882 5881 5880 5879 5878 5877 5876 5874 5873 5872 5870 5869 5868
5905 5904 5904 5904 5903 5902 5902 5901 5901 5900 5900 5899 5899 5898 5897 5897 5896 5895 5894 5893 5892 5891 5890 5889 5888 5887 5886 5885 5884 5883 5881 5880 5878 5877 5876 5875 5874 5873 5872 5870 5868 5867 5865
5905 5905 5904 5904 5904 5903 5903 5902 5902 5901 5900 5900 5899 5898 5897 5897 5896 5895 5894 5893 5892 5891 5890 5889 5887 5886 5885 5884 5883 5882 5880 5879 5877 5876 5874 5873 5872 5871 5870 5869 5867 5865 5863
5905 5905 5905 5904 5904 5903 5903 5903 5902 5901 5901 5900 5899 5898 5897 5897 5896 5895 5894 5893 5892 5891 5889 5888 5886 5885 5884 5882 5881 5880 5879 5878 5876 5875 5873 5872 5870 5869 5868 5866 5865 5863 5861
5905 5905 5904 5904 5903 5903 5903 5902 5902 5901 5901 5900 5899 5898 5897 5896 5896 5895 5893 5892 5891 5890 5888 5887 5885 5884 5882 5881 5880 5878 5877 5876 5874 5873 5871 5869 5868 5866 5865 5864 5862 5861 5859
5904 5904 5904 5903 5903 5903 5902 5902 5901 5901 5900 5899 5898 5897 5896 5896 5895 5893 5892 5891 5890 5888 5887 5885 5884 5882 5881 5879 5878 5876 5875 5874 5872 5870 5869 5867 5865 5864 5862 5861 5859 5858 5856
5903 5903 5903 5903 5902 5902 5901 5901 5900 5900 5899 5898 5897 5896 5896 5895 5894 5892 5891 5890 5888 5887 5885 5884 5882 5881 5879 5878 5876 5875 5873 5871 5870 5868 5866 5865 5863 5861 5859 5858 5856 5854 5852
5901 5901 5901 5901 5901 5900 5900 5899 5899 5898 5898 5897 5896 5895 5894 5893 5892 5891 5890 5888 5886 5885 5883 5882 5880 5879 5877 5875 5874 5872 5870 5869 5867 5865 5863 5862 5860 5858 5856 5854 5852 5850 5848
5899 5899 5899 5899 5899 5899 5898 5898 5897 5897 5896 5896 5895 5894 5893 5891 5890 5889 5887 5886 5884 5883 5882 5880 5878 5877 5875 5873 5872 5870 5868 5866 5864 5862 5860 5858 5857 5855 5853 5851 5848 5846 5844
5897 5897 5897 5896 5897 5897 5896 5896 5895 5895 5894 5893 5893 5892 5891 5889 5888 5886 5885 5884 5882 5880 5879 5877 5876 5874 5872 5870 5869 5867 5865 5862 5860 5858 5856 5854 5853 5851 5849 5847 5845 5842 5840
5894 5894 5894 5894 5894 5894 5894 5893 5893 5892 5891 5891 5890 5889 5888 5887 5885 5884 5882 5881 5879 5878 5876 5875 5873 5871 5869 5867 5865 5863 5861 5859 5856 5855 5852 5850 5848 5847 5844 5842 5840 5838 5836
5891 5891 5891 5891 5891 5891 5891 5890 5890 5889 5888 5888 5887 5886 5885 5884 5882 5881 5879 5878 5876 5875 5873 5872 5870 5868 5866 5864 5862 5859 5857 5855 5852 5850 5848 5846 5844 5842 5840 5838 5835 5833 5831
5888 5888 5888 5888 5887 5887 5887 5887 5886 5886 5885 5884 5884 5883 5881 5880 5879 5877 5876 5874 5872 5871 5869 5868 5866 5864 5862 5860 5857 5855 5853 5850 5848 5846 5844 5841 5839 5837 5835 5833 5830 5828 5825
5884 5884 5884 5884 5883 5883 5883 5883 5882 5882 5882 5881 5880 5879 5878 5876 5875 5873 5871 5870 5868 5867 5865 5864 5862 5860 5857 5855 5853 5850 5848 5845 5843 5841 5839 5836 5834 5832 5829 5827 5824 5822 5820
5880 5880 5880 5879 5879 5879 5879 5878 5878 5877 5877 5876 5875 5874 5873 5872 5871 5869 5867 5865 5864 5863 5861 5859 5857 5854 5852 5850 5847 5845 5842 5840 5838 5835 5833 5831 5828 5826 5823 5821 5818 5816 5813
5874 5875 5875 5875 5874 5874 5874 5873 5873 5872 5871 5871 5870 5869 5868 5867 5866 5864 5863 5861 5859 5857 5856 5853 5851 5849 5847 5844 5842 5839 5837 5835 5832 5830 5827 5825 5822 5820 5817 5815 5812 5809 5807
5868 5868 5869 5869 5869 5869 5868 5868 5868 5867 5866 5865 5865 5864 5863 5862 5860 5859 5858 5856 5854 5852 5849 5847 5845 5843 5841 5838 5835 5833 5830 5828 5826 5824 5821 5818 5816 5813 5810 5808 5805 5803 5800
5862 5862 5863 5863 5863 5862 5862 5862 5862 5861 5860 5859 5859 5858 5857 5856 5854 5853 5852 5850 5848 5846 5843 5841 5839 5836 5834 5831 5828 5826 5823 5821 5819 5817 5814 5811 5809 5806 5803 5800 5798 5795 5792
5855 5855 5856 5857 5857 5856 5856 5856 5856 5855 5854 5853 5852 5851 5850 5849 5848 5847 5845 5844 5842 5839 5837 5835 5832 5830 5827 5825 5822 5819 5817 5814 5812 5809 5807 5804 5801 5798 5795 5793 5790 5788 5784
5848 5849 5849 5850 5850 5850 5850 5849 5849 5848 5847 5846 5845 5844 5843 5842 5841 5840 5838 5836 5835 5832 5830 5828 5825 5823 5820 5818 5815 5813 5810 5807 5805 5802 5799 5796 5793 5790 5787 5784 5782 5779 5776
5841 5841 5842 5842 5842 5842 5842 5842 5842 5841 5840 5839 5839 5838 5836 5835 5834 5832 5830 5829 5827 5825 5822 5820 5818 5816 5813 5810 5808 5806 5803 5800 5797 5794 5791 5788 5785 5782 5779 5776 5773 5770 5768
5833 5833 5834 5835 5835 5834 5834 5834 5834 5833 5833 5832 5832 5831 5829 5828 5826 5824 5823 5821 5819 5817 5814 5812 5810 5808 5806 5803 5801 5798 5795 5792 5789 5787 5783 5780 5777 5774 5771 5768 5764 5762 5759
5824 5825 5826 5826 5826 5826 5826 5826 5826 5826 5825 5825 5824 5823 5822 5821 5819 5817 5815 5813 5811 5809 5807 5805 5803 5800 5798 5796 5793 5790 5787 5785 5782 5778 5775 5772 5768 5765 5762 5759 5756 5753 5751
5815 5816 5817 5818 5818 5818 5819 5818 5818 5818 5817 5817 5816 5815 5814 5813 5811 5810 5808 5806 5804 5801 5799 5797 5795 5793 5791 5788 5786 5783 5779 5776 5773 5770 5767 5763 5760 5756 5753 5751 5748 5745 5742